Anchorage Merrill, AK

11:36 AM AKST on December 15, 2017 (GMT -0900)
Merrill

Weather History for PAMR - December, 2013

Change the Weather History Date:

Saturday, December 7, 2013

  Actual Average Record
Temperature  
Mean Temperature 34 °F -  
Max Temperature 34 °F 21 °F 37 °F (2000)
Min Temperature 33 °F 10 °F -9 °F (2001)
Degree Days  
Heating Degree Days 32    
Moisture  
Dew Point 30 °F    
Average Humidity 89    
Maximum Humidity 92    
Minimum Humidity 87    
Precipitation  
Precipitation 0.02 in - - ()
Sea Level Pressure  
Sea Level Pressure 30.47 in    
Wind  
Wind Speed 2 mph (NNW)    
Max Wind Speed 5 mph    
Max Gust Speed -    
Visibility 1 miles    
Events Fog    
Averages and records for this station are not official NWS values.
T = Trace of Precipitation, MM = Missing Value Source: NWS Daily Summary

Daily Weather History Graph

Daily Weather History Graph

Search for Another Location

Airport or City:

Trip Planner

Search our weather history database for the weather conditions in past years. The results will help you decide how hot, cold, wet, or windy it might be!

Date:

Astronomy

Dec. 07, 2013 Rise Set
Actual Time 9:57 AM AKST 3:44 PM AKST
Civil Twilight 8:57 AM AKST 4:44 PM AKST
Nautical Twilight 7:59 AM AKST 5:42 PM AKST
Astronomical Twilight 7:05 AM AKST 6:36 PM AKST
Moon 12:37 PM AKST (12/7) 10:56 PM AKST (12/7)
Length of Visible Light 7h 46m
Length of Day
5h 46m
Waxing Crescent, 31% of the Moon is Illuminated
Dec 7
Waxing Crescent
Dec 9
First Quarter
Dec 17
Full
Dec 25
Last Quarter
Jan 1
New

Hourly Weather History & Observations

Time (AKST) Temp. Windchill Dew Point Humidity Pressure Visibility Wind Dir Wind Speed Gust Speed Precip Events Conditions
12:53 AM 33.1 °F 28.7 °F 30.0 °F 89% 30.51 in 4.0 mi NNW 4.6 mph - N/A   Overcast
1:03 AM 33.8 °F 29.6 °F 30.2 °F 87% 30.50 in 1.8 mi NNW 4.6 mph - N/A   Overcast
1:15 AM 33.8 °F 30.8 °F 30.2 °F 87% 30.50 in 0.8 mi NNW 3.5 mph - N/A   Mist
1:53 AM 33.1 °F - 30.0 °F 89% 30.50 in 0.8 mi Calm Calm - N/A   Overcast
2:37 AM 33.8 °F - 30.2 °F 87% 30.47 in 0.5 mi Calm Calm - N/A Fog Fog
3:11 AM 33.8 °F 30.8 °F 30.2 °F 87% 30.47 in 1.0 mi North 3.5 mph - N/A   Overcast
3:53 AM 33.1 °F - 30.9 °F 92% 30.49 in 1.0 mi Calm Calm - N/A   Overcast
4:10 AM 33.8 °F - 30.2 °F 87% 30.47 in 0.5 mi Calm Calm - N/A Fog Fog
4:53 AM 33.1 °F - 30.0 °F 89% 30.48 in 0.2 mi Calm Calm - N/A Fog Fog
5:53 AM 33.1 °F - 30.0 °F 89% 30.48 in 0.1 mi Calm Calm - N/A Fog Fog
6:53 AM 33.1 °F 30.0 °F 30.9 °F 92% 30.48 in 0.1 mi West 3.5 mph - N/A Fog Fog
7:53 AM 33.1 °F - 30.0 °F 89% 30.49 in 0.2 mi Calm Calm - N/A Fog Fog
8:53 AM 33.1 °F - 30.0 °F 89% 30.48 in 0.2 mi Calm Calm - 0.01 in Fog Fog
9:53 AM 33.1 °F - 30.0 °F 89% 30.48 in 0.2 mi Calm Calm - N/A Fog Fog
10:53 AM 33.1 °F - 30.9 °F 92% 30.48 in 0.2 mi Calm Calm - N/A Fog Fog
11:53 AM 34.0 °F - 30.9 °F 89% 30.48 in 0.2 mi Calm Calm - N/A Fog Fog
12:53 PM 33.1 °F - 30.0 °F 89% 30.48 in 0.1 mi Calm Calm - N/A Fog Fog
1:53 PM 34.0 °F - 30.9 °F 89% 30.46 in 0.2 mi Calm Calm - N/A Fog Fog
2:53 PM 34.0 °F - 30.9 °F 89% 30.46 in 0.8 mi Calm Calm - N/A   Overcast
3:53 PM 34.0 °F - 30.9 °F 89% 30.46 in 2.5 mi Calm Calm - N/A   Overcast
4:53 PM 34.0 °F - 30.9 °F 89% 30.45 in 2.5 mi Calm Calm - N/A   Overcast
5:53 PM 33.1 °F - 30.0 °F 89% 30.46 in 1.0 mi Calm Calm - N/A   Mostly Cloudy
5:55 PM 33.8 °F - 30.2 °F 87% 30.45 in 0.5 mi Calm Calm - N/A Fog Fog
6:53 PM 33.1 °F - 30.0 °F 89% 30.46 in 0.5 mi Calm Calm - N/A Fog Fog
7:00 PM 33.8 °F - 30.2 °F 87% 30.45 in 0.5 mi Calm Calm - N/A Fog Fog
7:53 PM 33.1 °F - 30.0 °F 89% 30.46 in 0.5 mi Calm Calm - N/A Fog Fog
8:53 PM 33.1 °F - 30.0 °F 89% 30.47 in 0.5 mi Calm Calm - 0.00 in Fog Fog
9:53 PM 33.1 °F - 30.0 °F 89% 30.46 in 0.2 mi Calm Calm - 0.00 in Fog Fog
10:53 PM 33.1 °F - 30.0 °F 89% 30.46 in 0.5 mi Calm Calm - N/A Fog Fog
11:53 PM 33.1 °F - 30.0 °F 89% 30.46 in 0.2 mi Calm Calm - 0.01 in Fog Fog